Regional Weather Roundup
Issued by NWS Northern Indiana

Home | Current Version | Previous Version | Graphics & Text | Print | Product List | Glossary On
Versions: 1 2 3 4 5 6 7 8 9 10 11 12 13 14 15 16 17 18 19 20 21 22 23 24 25 26 27 28 29 30 31 32 33 34 35 36 37 38 39 40 41 42 43 44 45 46 47 48 49 50
000
ASUS43 KIWX 291610
RWRIWX

KIWX WEATHER ROUNDUP
NATIONAL WEATHER SERVICE NORTHERN INDIANA
1200 PM EDT WED OCT 29 2014

NOTE: "FAIR" INDICATES FEW OR NO CLOUDS BELOW 12,000 FEET WITH NO
SIGNIFICANT WEATHER AND/OR OBSTRUCTIONS TO VISIBILITY.

* THESE STATIONS ARE NOT UNDER NWS QUALITY CONTROL. THEY ALSO MAY NOT
  REPORT WEATHER SUCH AS PRECIPITATION OR FOG.

INZ001>027-291700-
NORTHERN INDIANA

CITY           SKY/WX    TMP DP  RH WIND       PRES   REMARKS
GARY*          CLOUDY    46  30  53 W14G28    30.08R
VALPARAISO     CLOUDY    45  32  60 W15G21    30.07R
MICHIGAN CITY* CLOUDY    45  32  61 NW10G17   30.06R
LAPORTE*       CLOUDY    47  34  62 NW8       30.06R
KNOX*          CLOUDY    46  34  62 W8        30.05R
SOUTH BEND     CLOUDY    46  34  62 NW13      30.05R
ELKHART*       CLOUDY    45  36  70 W8        30.03R
GOSHEN         CLOUDY    45  36  70 W14       30.03R
MONTICELLO*    CLOUDY    46  36  69 W12       30.08R
LOGANSPORT*    CLOUDY    45  32  61 W14       30.08S
ROCHESTER*     CLOUDY    46  36  66 W9        30.07R
WARSAW*        CLOUDY    43  36  75 W10       30.05R
ANGOLA*        CLOUDY    45  37  76 W8        30.02R
FORT WAYNE     CLOUDY    48  35  60 W16       30.05R
HUNTINGTON*    CLOUDY   N/A N/A N/A W12G20    30.05S
PERU/GRISSOM   CLOUDY    47  38  71 W15       30.07R
MARION*        CLOUDY    45  32  61 W17G25    30.08S

$$
INZ028>050-291700-
CENTRAL INDIANA

CITY           SKY/WX    TMP DP  RH WIND       PRES   REMARKS
LAFAYETTE      CLOUDY    47  36  65 W15       30.10R
KOKOMO*        CLOUDY    46  34  61 W17       30.09R
MUNCIE*        CLOUDY    47  34  60 W16       30.07R
INDIANAPOLIS   PTSUNNY   50  34  54 W16       30.10S

$$
MIZ043>046-050>051-056>058-064>065-071>073-077>080-291700-
SOUTHWEST LOWER MICHIGAN

CITY           SKY/WX    TMP DP  RH WIND       PRES   REMARKS
BATTLE CREEK   CLOUDY    45  36  70 W13       30.00R
BENTON HARBOR  LGT RAIN  43  38  82 W13       30.03R
COLDWATER*     CLOUDY    46  40  81 W14       30.00S
HILLSDALE*     CLOUDY    45  40  81 W7        29.99R
HOLLAND        CLOUDY    47  36  65 NW8G17    30.01R
GRAND RAPIDS   CLOUDY    44  43  96 W10       29.99R
KALAMAZOO      LGT RAIN  44  38  79 W12       30.02R
STURGIS*       DRIZZLE   43  39  87 W5        30.02R
THREE RIVERS*  RAIN      44  41  89 SW5       30.02S

$$
OHZ001>008-015>018-024>025-291700-
NORTHWEST OHIO

CITY           SKY/WX    TMP DP  RH WIND       PRES   REMARKS
WAUSEON*       CLOUDY    48  37  66 W12G21    30.00S
DEFIANCE       CLOUDY    49  36  61 W9G16     30.02R
FINDLAY        CLOUDY    50  35  56 W20G29    30.02R
TOLEDO EXPRESS CLOUDY    49  36  61 W17       30.00R
TOLEDO METCALF PTSUNNY   51  36  56 W16G25    30.00R
LIMA           CLOUDY    49  36  61 W21       30.03S

$$
AND FOR LAKE MICHIGAN COASTAL AND OPEN LAKE BUOY OBSERVATIONS

STATION/POSITION TEMP    WIND        PRES    VSBY  WAVE
                 AIR SEA DIR/SP/G                  HT/PER
                 (F)     (DEG/KT/KT) (MB)    (MI)  (FT/S)
CALUMET HARBOR    46     260/  5/  9 1016.9R
MICHIGAN CITY     45     270/ 19/ 25   N/A
SAINT JOSEPH      48     280/ 13/ 18 1017.9R
SOUTH LAKE BUOY   46 53  300/ 19/ 23 1016.7R         5/ 6

$$
&&



USA.gov is the U.S. government's official web portal to all federal, state and local government web resources and services.